Auburn, Auburn Municipal Airport, United States
Lat: 38.95N, Lon: 121.07W
Local Info
Past Weather Observations for Friday, February 27, 2015

NOTE: This archive is for the closest National Weather Service station to Auburn, Auburn Municipal Airport. Information may differ from the station used for current weather conditions.

Click here for Long-term Archive

Time Weather Temperature Dewpoint Humidity Pressure Winds Precip Visibility
23:55
Overcast
45°F / 7°C 41°F / 5°C 87% 29.68 in
(1005 mb)
ENE 5.8 mph
(ENE 9 kph)
- 10SM
23:35
Overcast
45°F / 7°C 41°F / 5°C 87% 29.68 in
(1005 mb)
ENE 6.9 mph
(ENE 11 kph)
- 10SM
23:15
Overcast
46°F / 8°C 43°F / 6°C 87% 29.71 in
(1006 mb)
NE 4.6 mph
(NE 7 kph)
- 10SM
22:55
Overcast
46°F / 8°C 43°F / 6°C 87% 29.68 in
(1005 mb)
SE 6.9 mph
(SE 11 kph)
- 10SM
22:35
Overcast
46°F / 8°C 43°F / 6°C 87% 29.68 in
(1005 mb)
ESE 10.4 mph
(ESE 17 kph)
- 10SM
22:15
Overcast
48°F / 9°C 45°F / 7°C 87% 29.68 in
(1005 mb)
SSE 5.8 mph
(SSE 9 kph)
- 10SM
21:55
Overcast
48°F / 9°C 45°F / 7°C 87% 29.68 in
(1005 mb)
SE 8.1 mph
(SE 13 kph)
- 10SM
21:35
Mostly Cloudy
48°F / 9°C 46°F / 8°C 94% 29.68 in
(1005 mb)
SSE 9.2 mph
(SSE 15 kph)
- 10SM
21:15
Mostly Cloudy
48°F / 9°C 45°F / 7°C 87% 29.68 in
(1005 mb)
SSE 8.1 mph
(SSE 13 kph)
- 10SM
20:55
Overcast
50°F / 10°C 46°F / 8°C 88% 29.68 in
(1005 mb)
SSE 8.1 mph
(SSE 13 kph)
- 10SM
20:35
Mostly Cloudy
50°F / 10°C 46°F / 8°C 88% 29.68 in
(1005 mb)
S 6.9 mph
(S 11 kph)
- 10SM
20:15
Overcast
52°F / 11°C 46°F / 8°C 82% 29.68 in
(1005 mb)
S 6.9 mph
(S 11 kph)
- 10SM
19:55
Mostly Cloudy
52°F / 11°C 46°F / 8°C 82% 29.68 in
(1005 mb)
S 4.6 mph
(S 7 kph)
- 10SM
19:35
Mostly Cloudy
52°F / 11°C 46°F / 8°C 82% 29.68 in
(1005 mb)
S 6.9 mph
(S 11 kph)
- 10SM
19:15
Overcast
54°F / 12°C 46°F / 8°C 77% 29.68 in
(1005 mb)
S 8.1 mph
(S 13 kph)
- 10SM
18:55
Mostly Cloudy
54°F / 12°C 46°F / 8°C 77% 29.68 in
(1005 mb)
S 11.5 mph
(S 19 kph)
- 10SM
18:35
Partly Cloudy
54°F / 12°C 45°F / 7°C 72% 29.68 in
(1005 mb)
SSE 8.1 mph
(SSE 13 kph)
- 10SM
18:15
Clear
54°F / 12°C 46°F / 8°C 77% 29.68 in
(1005 mb)
SSE 8.1 mph
(SSE 13 kph)
- 10SM
17:55
Clear
54°F / 12°C 46°F / 8°C 77% 29.65 in
(1004 mb)
S 10.4 mph
(S 17 kph)
- 10SM
17:35
Clear
55°F / 13°C 46°F / 8°C 72% 29.68 in
(1005 mb)
S 6.9 mph
(S 11 kph)
- 10SM
17:15
Partly Cloudy
55°F / 13°C 45°F / 7°C 67% 29.68 in
(1005 mb)
SSE 10.4 mph
(SSE 17 kph)
- 10SM
16:55
Partly Cloudy
57°F / 14°C 45°F / 7°C 63% 29.68 in
(1005 mb)
S 11.5 mph
(S 19 kph)
- 10SM
16:35
Clear
57°F / 14°C 43°F / 6°C 59% 29.68 in
(1005 mb)
S 8.1 mph
(S 13 kph)
- 10SM
16:15
Clear
59°F / 15°C 43°F / 6°C 55% 29.68 in
(1005 mb)
SW 10.4 mph
(SW 17 kph)
- 10SM
15:55
Clear
59°F / 15°C 43°F / 6°C 55% 29.68 in
(1005 mb)
SSE 11.5 mph
(SSE 19 kph)
- 10SM
15:35
Clear
59°F / 15°C 43°F / 6°C 55% 29.71 in
(1006 mb)
SSE 10.4 mph
(SSE 17 kph)
- 10SM
15:15
Partly Cloudy
61°F / 16°C 45°F / 7°C 55% 29.71 in
(1006 mb)
SSE 11.5 mph
(SSE 19 kph)
- 10SM
14:55
Partly Cloudy
59°F / 15°C 45°F / 7°C 59% 29.71 in
(1006 mb)
S 10.4 mph
(S 17 kph)
- 10SM
14:35
Clear
57°F / 14°C 43°F / 6°C 59% 29.71 in
(1006 mb)
SW 6.9 mph
(SW 11 kph)
- 10SM
14:15
Partly Cloudy
61°F / 16°C 43°F / 6°C 52% 29.74 in
(1007 mb)
SW 9.2 mph
(SW 15 kph)
- 10SM
13:55
Partly Cloudy
61°F / 16°C 45°F / 7°C 55% 29.74 in
(1007 mb)
SSE 11.5 mph
(SSE 19 kph)
- 10SM
13:35
Partly Cloudy
59°F / 15°C 45°F / 7°C 59% 29.74 in
(1007 mb)
SW 4.6 mph
(SW 7 kph)
- 10SM
13:15
Mostly Cloudy
61°F / 16°C 45°F / 7°C 55% 29.74 in
(1007 mb)
SW 8.1 mph
(SW 13 kph)
- 10SM
12:55
Partly Cloudy
61°F / 16°C 45°F / 7°C 55% 29.77 in
(1008 mb)
SSW 4.6 mph
(SSW 7 kph)
- 10SM
12:35
Partly Cloudy
57°F / 14°C 45°F / 7°C 63% 29.77 in
(1008 mb)
SW 6.9 mph
(SW 11 kph)
- 10SM
12:15
Partly Cloudy
57°F / 14°C 45°F / 7°C 63% 29.8 in
(1009 mb)
SSW 5.8 mph
(SSW 9 kph)
- 10SM
11:55
Mostly Cloudy
57°F / 14°C 43°F / 6°C 59% 29.8 in
(1009 mb)
SSE 8.1 mph
(SSE 13 kph)
- 10SM
11:35
Partly Cloudy
57°F / 14°C 43°F / 6°C 59% 29.8 in
(1009 mb)
SSW 5.8 mph
(SSW 9 kph)
- 10SM
11:15
Partly Cloudy
59°F / 15°C 41°F / 5°C 51% 29.8 in
(1009 mb)
SSW 5.8 mph
(SSW 9 kph)
- 10SM
10:55
Partly Cloudy
57°F / 14°C 41°F / 5°C 55% 29.83 in
(1010 mb)
Calm - 10SM
10:35
Clear
55°F / 13°C 41°F / 5°C 59% 29.83 in
(1010 mb)
Calm - 10SM
10:15
Clear
55°F / 13°C 43°F / 6°C 63% 29.83 in
(1010 mb)
SW 4.6 mph
(SW 7 kph)
- 10SM
09:55
Clear
55°F / 13°C 45°F / 7°C 67% 29.83 in
(1010 mb)
S 4.6 mph
(S 7 kph)
- 10SM
09:35
Clear
54°F / 12°C 45°F / 7°C 72% 29.83 in
(1010 mb)
SE 6.9 mph
(SE 11 kph)
- 10SM
09:15
Clear
52°F / 11°C 45°F / 7°C 77% 29.83 in
(1010 mb)
SE 6.9 mph
(SE 11 kph)
- 10SM
08:55
Clear
52°F / 11°C 45°F / 7°C 77% 29.83 in
(1010 mb)
SE 8.1 mph
(SE 13 kph)
- 10SM
08:35
Clear
50°F / 10°C 45°F / 7°C 82% 29.83 in
(1010 mb)
SE 8.1 mph
(SE 13 kph)
- 10SM
08:15
Clear
48°F / 9°C 45°F / 7°C 87% 29.83 in
(1010 mb)
SE 9.2 mph
(SE 15 kph)
- 10SM
07:55
Clear
48°F / 9°C 45°F / 7°C 87% 29.83 in
(1010 mb)
SE 6.9 mph
(SE 11 kph)
- 10SM
07:35
Clear
46°F / 8°C 43°F / 6°C 87% 29.83 in
(1010 mb)
SE 5.8 mph
(SE 9 kph)
- 10SM
07:15
Clear
45°F / 7°C 43°F / 6°C 93% 29.83 in
(1010 mb)
SE 4.6 mph
(SE 7 kph)
- 10SM
06:55
Clear
43°F / 6°C 41°F / 5°C 93% 29.83 in
(1010 mb)
SE 4.6 mph
(SE 7 kph)
- 10SM
06:35
Clear
43°F / 6°C 39°F / 4°C 87% 29.83 in
(1010 mb)
SE 4.6 mph
(SE 7 kph)
- 10SM
06:15
Clear
43°F / 6°C 39°F / 4°C 87% 29.83 in
(1010 mb)
Calm - 10SM
05:55
Clear
43°F / 6°C 39°F / 4°C 87% 29.83 in
(1010 mb)
Calm - 10SM
05:35
Clear
45°F / 7°C 41°F / 5°C 87% 29.83 in
(1010 mb)
Calm - 10SM
05:15
Clear
45°F / 7°C 41°F / 5°C 87% 29.83 in
(1010 mb)
Calm - 10SM
04:55
Clear
46°F / 8°C 41°F / 5°C 82% 29.83 in
(1010 mb)
SE 3.5 mph
(SE 6 kph)
- 10SM
04:35
Clear
45°F / 7°C 41°F / 5°C 87% 29.83 in
(1010 mb)
SE 3.5 mph
(SE 6 kph)
- 10SM
04:15
Clear
46°F / 8°C 41°F / 5°C 82% 29.83 in
(1010 mb)
SE 3.5 mph
(SE 6 kph)
- 10SM
03:55
Clear
46°F / 8°C 41°F / 5°C 82% 29.83 in
(1010 mb)
SE 3.5 mph
(SE 6 kph)
- 10SM
03:35
Clear
46°F / 8°C 39°F / 4°C 76% 29.83 in
(1010 mb)
SE 4.6 mph
(SE 7 kph)
- 10SM
03:15
Clear
46°F / 8°C 39°F / 4°C 76% 29.83 in
(1010 mb)
SE 4.6 mph
(SE 7 kph)
- 10SM
02:55
Clear
46°F / 8°C 39°F / 4°C 76% 29.83 in
(1010 mb)
SE 4.6 mph
(SE 7 kph)
- 10SM
02:35
Clear
46°F / 8°C 39°F / 4°C 76% 29.86 in
(1011 mb)
Calm - 10SM
02:15
Clear
48°F / 9°C 39°F / 4°C 71% 29.86 in
(1011 mb)
SE 4.6 mph
(SE 7 kph)
- 10SM
01:55
Clear
48°F / 9°C 39°F / 4°C 71% 29.89 in
(1012 mb)
SE 3.5 mph
(SE 6 kph)
- 10SM
01:35
Clear
50°F / 10°C 39°F / 4°C 67% 29.86 in
(1011 mb)
SE 4.6 mph
(SE 7 kph)
- 10SM
01:15
Partly Cloudy
52°F / 11°C 39°F / 4°C 62% 29.89 in
(1012 mb)
SSE 4.6 mph
(SSE 7 kph)
- 10SM
00:55
Mostly Cloudy
50°F / 10°C 41°F / 5°C 71% 29.89 in
(1012 mb)
Calm - 10SM
00:35
Mostly Cloudy
50°F / 10°C 41°F / 5°C 71% 29.89 in
(1012 mb)
Calm - 10SM
00:15
Mostly Cloudy
52°F / 11°C 41°F / 5°C 67% 29.89 in
(1012 mb)
SSE 3.5 mph
(SSE 6 kph)
- 10SM
Time Weather Temperature Dewpoint Humidity Pressure Winds Precip Visibility


Weather for websites

WeatherForYou.com, LLC is not responsible for any damages or problems caused by this service. Current weather conditions are obtained from the closest station including government and personal stations which may have varying degrees of accuracy. Weather forecasts are derived from the NOAA NDFD. Like all things, this site belongs to Jesus Christ... He just trusts me to maintain it. If you have any questions or comments email webmaster@weatherforyou.com

Copyright © 2015, WeatherForYou.com LLC. All rights reserved.